{"data":{"norad_id":28702,"intl_designator":"2005-022A","name":"GALAXY 28 (G-28)","alt_names":[],"object_type":"PAYLOAD","status":"ACTIVE","operator":null,"country":"ITSO","launch_date":"2005-06-23","launch_site_code":"SEAL","launch_vehicle":null,"mission":null,"orbit_class":"UNKNOWN","rcs_meters":16.7962,"size_class":null,"mass_kg":null,"dimensions":null,"purposes":["comms"],"wikipedia_slug":null,"has_3d_model":false,"image_url":null,"decayed_at":null,"tle_current":{"epoch":"2026-05-25T03:03:45.815040Z","epoch_age_seconds":59911,"freshness":"FRESH","line1":"1 28702U 05022A   26145.12761360 -.00000202  00000+0  00000+0 0  9995","line2":"2 28702   3.2420  79.2136 0003062 345.6013 196.7294  1.00268037 51745","mean_motion":1.00268037,"eccentricity":0.0003062,"inclination_deg":3.242,"raan_deg":79.2136,"arg_perigee_deg":345.6013,"mean_anomaly_deg":196.7294,"bstar":0,"rev_number":5174,"period_min":1436.1505850563,"perigee_km":35774.734531715,"apogee_km":35800.556857037,"semimajor_km":42165.782694376,"source":"CELESTRAK","updated_at":"2026-05-25T13:38:14.324862Z"}}}